sat.trackr.live / text

‹ back to catalog

STARLINK-6197

NORAD 56767 · 2023-078A

PAYLOAD ACTIVE UNKNOWN

§ Identity

Operator
Country
US
Launch date
2023-05-31
Launch site
AFWTR
Launch vehicle
Mass (kg)
RCS (m²)

Purposes: comms

External: N2YO · Heavens-Above · Gunter

§ Orbital elements

Epoch: 2026-09-20T06:21:32.996736Z

Period
94.45 min
Inclination
69.9869°
Eccentricity
0.0006668
Mean motion
15.24683704 rev/d
Perigee alt
487.2 km
Apogee alt
496.3 km
Semi-major
6,869.9 km
B*
6.9843e-4
RAAN
201.5746°
Arg perigee
221.4378°
Mean anomaly
138.6290°
Rev number
18,213

§ Raw data

STARLINK-61971 56767U 23078A   26263.26496524  .00017238  00000+0  69843-3 0  99912 56767  69.9869 201.5746 0006668 221.4378 138.6290 15.24683704182132

JSON: /api/v1/satellites/56767 · /tle

For live sub-satellite position, see the globe view (requires WebGL).

§ Visibility from observer

Set your observer location to see the next 7 days of passes ≥ 10°. The values pass through the URL so the page stays shareable.

No JS? Fill the form by hand. The geolocation button needs JavaScript.